map of CXR home
CXR - Airport
Location
City:  Nha Trang, Vietnam
Near (Alt.):Cam Ranh
Name:Cam Ranh International Airport
ICAO:VVCR
IATA:CXR

Details
Type:Airport (Aerodrome, Airfield)
Use:Public/Civil, International (customs port of entry)
Latitude:1159'53"N (11.998153)
Longitude:10913'10"E (109.219372)
Datum:WGS 1984
Elevation:40 ft (12 m)
Variation:0.71W (WMM2015 magnetic declination)
-0.04 annual change
Runways:1
Longest:10000 × 150 ft (3048 × 45.5 m), paved

Time
Time Zone:UTC+7
Local Time:

Weather
METAR:VVCR 282000Z 29003KT 230V300 9999 FEW015 SCT050 27/24 Q1005 NOSIG
TAF:VVCR 281700Z 2818/2918 32005KT 9999 SCT015 SCT050
BECMG 2904/2905 12012KT
TEMPO 2908/2912 5000 SHRA SCT013 FEW015CB SCT050

Related Locations
Nearby:
Farthest:SPNU: 12442 mi / 20024 km
Manu [Manu Airport], MDD, PE

Find:

   beyond  
but within

Other Information
Maps:
NOTAMs:
Links:
Sources:

  
flag of Vietnam   

Sectional Chart

Flight Planning
at skyvector.com

Satellite Image

Google Maps Satellite view

 

Copyright © 2004-2016 Karl L. Swartz. All rights reserved.
The Great Circle Mapper name and logo are trademarks of the Great Circle Mapper.
All other trademarks mentioned herein belong to their respective owners.
Please see credits for attibutions and further copyright information.

  Follow gcmap on Facebook Follow gcmap on Twitter Follow gcmap on Google+ GCmap on LinkedIn

hCard Microformat

Geo Microformat